User: anonymous   Login
Location: Brno
(49.2000°N, 16.6330°E)
Time: 18:50:50
(UTC+02:00)
Language:

BREEZE M DEB (TANK) - Orbit

View from above orbital plane
View from above orbital plane
View from above satellite
View from above satellite

Ground track
Ground track

The orbit data is extracted from the following two-line orbital elements,

1 28359U 04022B   16210.59105698 +.00001052 +00000-0 +13564-3 0  9998
2 28359 049.5529 009.9449 4679489 312.9097 016.2337 06.18401418265251
Epoch (UTC): 28 July 2016 14:11:07
Eccentricity: 0.4679489
inclination: 49.5529°
perigee height: 292 km
apogee height: 12026 km
right ascension of ascending node: 9.9449°
argument of perigee: 312.9097°
revolutions per day: 6.18401418
mean anomaly at epoch: 16.2337°
orbit number at epoch: 26525

The dashed part of the orbit path shows where the satellite is in the earth's shadow,  

DLR